CAPE
0 1 0 0 1 1 2 2 2 1 1 1 0 2 12 11 13 0 0 0 0 0 0 0 0 0 0 0 0 0 0 0
3 2 1 1 1 2 2 1 1 1 1 3 0 0 1 3 10 0 0 0 0 0 0 0 0 5 0 0 0 0 0 0
1 2 2 3 2 1 2 1 1 2 0 5 1 0 0 14 8 5 2 0 0 0 0 0 0 6 1 0 0 0 0 0
0 0 0 2 1 2 2 0 1 1 0 0 0 0 1 1 1 7 1 0 0 0 0 0 0 0 7 4 1 2 0 0
0 0 0 1 1 0 3 2 1 1 0 0 0 1 0 1 0 0 0 0 0 0 0 0 3 33 57 53 22 16 0 0
0 0 0 0 0 1 1 1 1 1 2 0 0 1 0 0 0 0 1 0 0 1 10 31 45 50 100 84 44 14 0 0
0 0 0 0 1 2 1 2 2 0 0 0 0 0 0 0 0 0 0 0 1 23 38 60 113 121 134 141 97 36 16 0
0 0 0 0 0 0 0 2 2 1 0 0 0 0 0 0 0 0 0 0 2 12 7 6 10 21 61 78 99 42 29 12
0 0 0 0 0 0 0 0 1 1 0 0 0 0 0 0 0 0 0 0 0 0 0 1 2 0 0 14 27 44 36 4
0 0 0 0 0 0 0 0 0 0 0 0 0 0 0 0 0 0 0 0 0 0 0 0 0 0 0 11 21 38 24 6
0 0 0 0 0 0 0 0 0 0 0 0 0 0 0 0 0 0 0 0 0 0 0 0 0 0 0 10 18 30 9 0
0 0 0 0 0 0 0 0 0 0 0 0 0 0 0 0 0 0 0 0 0 0 0 0 0 0 0 5 17 14 2 6
0 0 0 0 0 0 0 0 0 0 0 0 0 0 0 0 0 0 0 0 0 0 0 0 0 0 1 1 4 1 1 0
0 0 2 2 0 0 0 0 0 0 0 0 0 0 0 0 0 0 0 0 0 0 0 0 0 0 2 9 2 0 0 0
0 0 2 17 10 0 0 0 0 0 0 0 0 0 0 0 0 0 0 0 0 0 0 0 0 0 0 0 0 0 0 1
0 0 0 8 3 0 0 0 0 0 0 0 0 0 0 0 0 0 0 0 0 0 0 0 0 0 0 0 0 0 0 0
0 0 0 0 2 0 0 0 0 0 0 0 0 0 0 0 0 0 0 0 0 0 0 0 0 0 0 0 0 0 0 1
0 0 0 0 0 20 23 2 0 0 0 0 0 0 0 0 0 0 0 0 0 1 1 1 0 0 0 0 1 0 2 1
0 0 0 0 0 0 17 6 4 1 1 0 0 0 0 0 0 0 1 1 1 0 0 0 0 1 1 1 4 1 1 2
CIN
-0 -0 -0 -0 -0 -0 -0 -0 -0 -0 -1 -3 -0 -4 -11 -50 -98 -0 -0 -0 -0 -0 -0 -0 -0 -0 -0 -0 -0 -0 -0 -0
-0 -0 -0 -0 -0 -0 -0 -0 -0 -0 -0 -0 -0 -0 -0 -26 -71 -90 -22 -0 -0 -0 -0 -0 -0 -75 -0 -0 -0 -0 -0 -0
-0 -0 -0 -0 -0 -0 -0 -0 -0 -0 -0 -0 -0 -0 -0 -20 -58 -79 -100 -0 -0 -0 -0 -0 -0 -83 -71 -0 -0 -0 -0 -0
-0 -0 -0 -0 -0 -0 -0 -0 -0 -0 -0 -0 -0 -0 -0 -5 -0 -52 -43 -0 -0 -0 -7 -61 -0 -6 -105 -143 -85 -113 -31 -0
-0 -0 -0 -0 -0 -0 -0 -0 -0 -0 -0 -0 -0 -0 -0 -0 -0 -0 -0 -20 -0 -0 -11 -11 -36 -102 -88 -107 -133 -116 -0 -0
-0 -0 -0 -0 -0 -0 -0 -0 -0 -0 -0 -0 -0 -0 -0 -0 -0 -0 -33 -13 -0 -48 -55 -41 -43 -49 -63 -84 -119 -133 -0 -0
-0 -0 -0 -0 -0 -0 -0 -0 -0 -0 -0 -0 -0 -0 -0 -0 -0 -0 -0 -40 -16 -40 -42 -50 -49 -46 -65 -78 -102 -108 -101 -12
-0 -0 -0 -0 -0 -0 -0 -0 -0 -0 -0 -0 -0 -0 -0 -0 -0 -0 -0 -6 -54 -45 -56 -56 -70 -90 -86 -86 -85 -97 -94 -81
-0 -0 -0 -0 -0 -0 -0 -0 -0 -0 -0 -0 -0 -0 -0 -0 -0 -0 -0 -0 -0 -0 -3 -98 -102 -11 -0 -128 -126 -94 -79 -77
-0 -0 -0 -0 -0 -0 -0 -0 -0 -0 -0 -0 -0 -0 -0 -0 -0 -0 -0 -0 -0 -0 -0 -0 -0 -0 -0 -110 -88 -81 -70 -61
-0 -0 -0 -0 -0 -0 -0 -0 -0 -0 -0 -0 -0 -0 -0 -0 -0 -0 -0 -0 -0 -0 -0 -0 -0 -0 -0 -84 -78 -72 -70 -0
-0 -0 -0 -0 -0 -0 -0 -0 -0 -0 -0 -0 -0 -0 -0 -0 -0 -0 -0 -0 -0 -0 -0 -0 -0 -0 -0 -65 -75 -47 -22 -52
-0 -0 -0 -0 -0 -0 -0 -0 -0 -0 -0 -0 -0 -0 -0 -0 -0 -0 -0 -0 -0 -0 -0 -0 -0 -0 -39 -39 -56 -53 -21 -0
-0 -187 -427 -563 -0 -0 -0 -0 -0 -0 -0 -0 -0 -0 -0 -0 -0 -0 -0 -0 -0 -0 -0 -0 -0 -0 -21 -97 -13 -0 -0 -0
-0 -0 -331 -396 -516 -0 -0 -0 -0 -0 -0 -0 -0 -0 -0 -0 -0 -0 -0 -0 -0 -0 -0 -0 -0 -0 -0 -0 -0 -0 -0 -0
-0 -0 -0 -318 -425 -0 -0 -0 -0 -0 -0 -0 -0 -0 -0 -0 -0 -0 -0 -0 -0 -0 -0 -0 -0 -21 -0 -0 -0 -0 -0 -0
-0 -0 -0 -0 -309 -100 -0 -0 -0 -0 -0 -0 -0 -0 -0 -0 -0 -0 -0 -0 -0 -0 -0 -0 -0 -0 -0 -0 -0 -0 -0 -0
-0 -0 -0 -0 -0 -326 -298 -326 -0 -0 -0 -0 -0 -0 -0 -0 -0 -0 -0 -0 -0 -0 -0 -0 -0 -0 -0 -0 -0 -0 -0 -0
-0 -0 -0 -0 -0 -0 -393 -516 -478 -302 -341 -0 -0 -0 -0 -0 -0 -0 -0 -0 -2 -0 -0 -0 -0 -0 -0 -0 -0 -0 -0 -0
Wind_Speed
6 8 9 10 10 9 7 5 5 8 6 6 10 7 9 13 12 14 14 14 11 13 8 7 6 5 8 5 2 3 3 3
7 8 9 10 10 11 11 11 10 13 11 9 7 7 8 15 11 13 13 12 10 9 7 8 6 10 9 6 5 4 6 7
6 8 11 11 12 14 17 19 19 16 7 7 9 8 14 13 16 13 12 13 11 10 11 9 9 10 10 8 6 8 10 9
6 9 13 15 17 17 19 21 24 23 12 5 4 10 13 14 17 17 13 13 13 14 12 12 11 11 9 8 7 9 12 19
8 12 14 16 18 16 18 19 22 22 21 17 15 8 11 14 16 16 15 15 15 20 18 14 14 14 11 7 13 16 19 22
12 13 13 15 18 18 18 18 20 20 23 21 19 19 14 11 15 15 15 17 18 15 15 12 12 17 18 22 21 16 21 22
13 13 11 12 15 18 17 18 18 19 22 22 23 24 24 25 22 25 26 25 26 27 23 15 12 32 36 36 27 21 18 20
10 12 13 12 15 16 15 18 18 19 21 22 23 23 24 24 26 25 25 27 24 25 19 19 12 17 23 24 19 18 19 17
9 13 14 14 16 18 18 19 19 20 20 22 23 24 24 24 23 22 22 22 19 19 17 14 12 12 16 19 17 18 18 20
9 13 13 15 16 17 16 16 17 16 17 18 21 23 24 24 24 23 23 20 16 14 13 13 16 22 21 22 28 30 24 21
1 10 11 13 15 14 14 15 15 15 15 16 17 19 20 22 21 25 24 22 17 14 20 30 30 27 21 23 28 28 23 23
3 2 5 8 11 13 13 14 15 15 16 16 17 17 19 20 22 22 22 18 16 17 20 21 21 20 19 21 25 27 24 25
7 3 3 5 7 10 13 13 15 15 13 14 16 14 17 19 21 21 19 20 17 17 17 17 22 22 21 31 28 31 33 30
12 7 6 4 4 6 9 11 14 13 13 14 16 17 18 21 21 17 16 15 17 18 18 18 21 27 21 21 23 20 19 21
18 11 9 7 5 5 6 7 10 11 12 14 15 16 18 17 17 15 15 14 13 18 18 19 23 31 19 16 17 12 14 21
20 17 16 14 11 9 7 5 7 9 10 12 15 15 14 14 15 15 15 16 16 15 15 16 19 25 20 17 20 18 16 20
30 20 18 13 10 9 11 9 6 7 9 10 10 11 13 15 15 15 16 16 16 15 16 14 13 16 18 18 17 17 18 18
26 29 17 15 14 14 11 10 8 8 7 7 8 10 11 13 14 14 16 16 15 15 15 15 15 15 16 16 16 17 17 17
36 28 25 20 22 18 16 13 11 10 9 7 7 7 8 9 11 12 13 14 15 15 16 16 15 15 15 14 15 17 15 14
Wind_Direction
74 68 62 61 46 49 55 56 101 112 116 210 221 191 177 190 182 193 155 162 174 151 160 154 179 207 240 254 278 329 336 352
91 91 86 65 57 72 90 102 113 125 134 144 198 188 197 191 185 173 170 170 189 186 190 162 198 237 253 260 282 302 312 306
100 96 113 109 102 107 121 127 128 126 143 152 237 203 224 195 210 207 187 187 198 179 187 205 224 247 259 256 273 293 298 289
122 120 129 135 138 132 128 137 146 144 130 156 221 235 226 225 213 218 209 206 204 202 207 231 236 253 255 258 261 285 289 275
134 138 138 144 146 127 127 129 138 142 141 134 138 188 210 216 188 198 206 195 211 234 241 240 248 256 260 254 272 278 279 281
154 148 140 142 145 138 132 131 135 134 145 145 140 141 141 180 179 200 192 183 186 207 213 214 228 257 266 265 270 280 281 283
158 150 136 137 140 143 131 136 136 136 143 149 155 151 148 153 156 164 169 169 171 175 178 193 200 248 244 246 272 281 284 285
162 159 153 145 148 147 141 143 142 143 146 149 150 152 154 157 161 162 165 171 172 173 176 181 203 259 267 275 281 286 288 285
173 169 162 157 154 155 152 152 151 152 151 153 155 157 158 162 163 166 170 174 178 181 185 196 214 242 268 279 284 290 287 289
179 170 168 165 162 162 161 157 158 158 159 158 161 165 169 172 175 177 181 185 192 210 225 232 257 271 275 278 282 286 289 289
256 165 168 167 167 165 166 169 170 169 169 170 172 174 177 179 181 188 192 196 207 231 261 267 271 273 270 277 283 285 285 287
309 210 184 177 173 175 177 177 177 179 181 183 183 185 187 188 192 197 200 207 234 248 261 266 266 266 267 274 281 284 280 285
313 289 243 219 213 201 197 197 194 195 195 197 199 205 199 198 203 205 207 211 224 243 250 255 268 271 276 280 284 286 277 274
308 300 275 251 230 221 222 217 209 214 215 211 206 206 203 205 206 215 217 229 230 254 256 257 265 275 278 280 288 299 271 263
294 297 283 273 257 239 231 223 212 214 217 214 212 210 211 215 217 220 221 225 229 216 251 256 272 276 268 272 290 296 296 282
290 291 284 280 277 268 264 248 208 202 206 217 218 225 233 230 228 228 229 234 234 235 243 251 266 266 267 268 283 283 285 289
283 283 289 278 262 260 268 265 240 216 205 214 238 243 243 240 239 238 238 239 238 243 246 253 260 246 251 261 270 276 284 286
291 284 277 280 267 270 255 247 246 230 229 240 246 254 255 254 251 247 243 246 251 249 255 260 259 261 253 253 261 279 281 283
283 287 283 282 278 268 268 259 234 243 245 241 243 237 243 255 266 258 257 254 254 262 264 266 268 270 261 260 271 283 281 280